This is the latest recevied weather packets stored in our database for station/object W1GK. If no packets are shown the sender has not sent any weather packets the latest 10 day(s).
| Time | Temp. | Humidity | Pressure | Rain* | Wind** | Luminosity | Snow |
|---|---|---|---|---|---|---|---|
| 1777945200 | 22.22° C | 20% | 1008 hPa | 0 mm | - | 25 W/m² | - |
| 1777944599 | 22.22° C | 19% | 1008 hPa | 0 mm | - | 153 W/m² | - |
| 1777943999 | 22.78° C | 19% | 1008.1 hPa | 0 mm | - | 185 W/m² | - |
| 1777943399 | 22.78° C | 19% | 1008 hPa | 0 mm | - | 216 W/m² | - |
| 1777942799 | 23.33° C | 18% | 1008.1 hPa | 0 mm | - | 257 W/m² | - |
| 1777942200 | 23.33° C | 19% | 1008 hPa | 0 mm | - | 304 W/m² | - |
| 1777941601 | 23.89° C | 19% | 1008 hPa | 0 mm | - | 334 W/m² | - |
| 1777941000 | 23.89° C | 18% | 1008.1 hPa | 0 mm | - | 352 W/m² | - |
| 1777940401 | 24.44° C | 16% | 1008.2 hPa | 0 mm | - | 417 W/m² | - |
| 1777939799 | 23.89° C | 16% | 1008.2 hPa | 0 mm | - | 371 W/m² | - |
| 1777939201 | 23.33° C | 16% | 1008.3 hPa | 0 mm | - | 285 W/m² | - |
| 1777938600 | 23.89° C | 17% | 1008.2 hPa | 0 mm | - | 234 W/m² | - |
| 1777938001 | 24.44° C | 15% | 1008.3 hPa | 0 mm | - | 309 W/m² | - |
| 1777937399 | 24.44° C | 13% | 1008.4 hPa | 0 mm | - | 232 W/m² | - |
| 1777936799 | 25° C | 14% | 1008.4 hPa | 0 mm | - | 294 W/m² | - |
| 1777936201 | 25° C | 14% | 1008.3 hPa | 0 mm | - | 628 W/m² | - |
| 1777935603 | 25.56° C | 13% | 1008.4 hPa | 0 mm | - | 188 W/m² | - |
| 1777935001 | 25.56° C | 12% | 1008.4 hPa | 0 mm | - | 524 W/m² | - |
| 1777934401 | 25.56° C | 13% | 1008.5 hPa | 0 mm | - | 817 W/m² | - |
| 1777933800 | 25° C | 13% | 1008.4 hPa | 0 mm | - | 617 W/m² | - |
| 1777933201 | 25° C | 12% | 1008.6 hPa | 0 mm | - | 406 W/m² | - |
| 1777932599 | 25.56° C | 12% | 1008.6 hPa | 0 mm | - | 503 W/m² | - |
| 1777931999 | 25.56° C | 10% | 1008.8 hPa | 0 mm | - | 833 W/m² | - |
| 1777931402 | 25.56° C | 10% | 1008.8 hPa | 0 mm | - | 640 W/m² | - |
| 1777930800 | 25.56° C | 12% | 1009.1 hPa | 0 mm | - | 557 W/m² | - |
* Rain latest hour (hover to see other rain measurements)
** Current wind speed in m/s (hover to see current wind gust speed)